GW5760 Weather Reports


time (UTC)temp
C
wind
direction
speed
KPH
gust
KPH
rain 1hr
cm
rain 24hr
cm
rain mn
cm
humidity
%
barometer
mb
20260508013616 23 0.0 0.0 0.00 0.00 0.00 60 1012.9
20260508012617 23 203 6.4 12.9 0.00 0.00 0.00 59 1012.9
20260508011617 23 0.0 0.0 0.00 0.00 0.00 59 1012.8
20260508010616 23 0.0 0.0 0.00 0.00 0.00 58 1012.9
20260508005618 24 0.0 4.8 0.00 0.00 0.00 58 1012.8
20260508004618 24 0.0 0.0 0.00 0.00 0.00 57 1012.8
20260508003617 25 0.0 0.0 0.00 0.00 0.00 56 1012.8
20260508002617 25 0.0 0.0 0.00 0.00 0.00 56 1012.8
20260508001618 25 0.0 0.0 0.00 0.00 0.00 55 1012.8
20260508000617 25 0.0 0.0 0.00 0.00 0.00 55 1012.7
20260507235617 25 0.0 0.0 0.00 0.00 0.00 54 1012.8
20260507234638 25 0.0 0.0 0.00 0.00 0.00 54 1012.8
20260507233618 25 0.0 0.0 0.00 0.00 0.00 54 1012.8
20260507232617 25 0.0 0.0 0.00 0.00 0.00 54 1012.9
20260507231617 25 0.0 0.0 0.00 0.00 0.00 54 1012.9
20260507230617 25 0.0 0.0 0.00 0.00 0.00 52 1013.0
20260507225638 26 0.0 0.0 0.00 0.00 0.00 51 1013.0
20260507224617 26 0.0 0.0 0.00 0.00 0.00 51 1013.1
20260507223617 25 0.0 0.0 0.00 0.00 0.00 52 1013.2
20260507222638 25 0.0 0.0 0.00 0.00 0.00 53 1013.1
20260507221658 25 0.0 0.0 0.00 0.00 0.00 52 1013.2
20260507220617 25 0.0 0.0 0.00 0.00 0.00 53 1013.4
20260507215618 26 0.0 0.0 0.00 0.00 0.00 51 1013.5
20260507214617 25 0.0 0.0 0.00 0.00 0.00 53 1013.6
20260507213617 26 0.0 0.0 0.00 0.00 0.00 51 1013.8
20260507212617 26 0.0 0.0 0.00 0.00 0.00 51 1013.8
20260507211617 25 0.0 0.0 0.00 0.00 0.00 54 1013.8
20260507210617 25 0.0 0.0 0.00 0.00 0.00 53 1013.9
20260507205617 25 0.0 0.0 0.00 0.00 0.00 53 1014.0
20260507204617 25 0.0 6.4 0.00 0.00 0.00 54 1014.1
20260507203617 25 0.0 0.0 0.00 0.00 0.00 56 1014.1
20260507202617 24 0.0 0.0 0.00 0.00 0.00 57 1014.1
20260507201617 24 0.0 0.0 0.00 0.00 0.00 56 1014.2
20260507200637 25 0.0 0.0 0.00 0.00 0.00 56 1014.3
20260507195617 25 0.0 0.0 0.00 0.00 0.00 56 1014.4
20260507194617 25 0.0 0.0 0.00 0.00 0.00 54 1014.5
20260507193618 25 0.0 0.0 0.00 0.00 0.00 53 1014.6
20260507192639 25 0.0 0.0 0.00 0.00 0.00 54 1014.7
20260507191617 25 0.0 0.0 0.00 0.00 0.00 55 1014.9
20260507190617 24 0.0 0.0 0.00 0.00 0.00 55 1015.0
20260507185619 24 0.0 0.0 0.00 0.00 0.00 55 1015.2
20260507184637 25 0.0 0.0 0.00 0.00 0.00 56 1015.3
20260507183617 23 0.0 0.0 0.00 0.00 0.00 57 1015.4
20260507182617 23 0.0 0.0 0.00 0.00 0.00 57 1015.5
20260507181617 23 0.0 0.0 0.00 0.00 0.00 58 1015.6
20260507180617 23 0.0 0.0 0.00 0.00 0.00 59 1015.6
20260507175617 22 0.0 0.0 0.00 0.00 0.00 58 1015.7
20260507174617 23 0.0 0.0 0.00 0.00 0.00 60 1015.7
20260507173617 22 0.0 0.0 0.00 0.00 0.00 61 1015.8
20260507172617 22 0.0 0.0 0.00 0.00 0.00 61 1015.7
20260507171617 21 0.0 0.0 0.00 0.00 0.00 63 1015.8
20260507170617 21 0.0 0.0 0.00 0.00 0.00 63 1015.8
20260507165657 21 0.0 0.0 0.00 0.00 0.00 64 1015.9
20260507164617 21 0.0 0.0 0.00 0.00 0.00 65 1015.9
20260507163617 20 0.0 0.0 0.00 0.00 0.00 66 1016.0
20260507162618 20 0.0 0.0 0.00 0.00 0.00 69 1015.9
20260507161617 19 0.0 0.0 0.00 0.00 0.00 71 1016.0
20260507160618 18 0.0 0.0 0.00 0.00 0.00 72 1016.1
20260507155637 18 0.0 0.0 0.00 0.00 0.00 74 1016.0
20260507154617 17 0.0 0.0 0.00 0.00 0.00 75 1016.1
20260507153617 17 0.0 0.0 0.00 0.00 0.00 75 1016.3
20260507152617 17 0.0 0.0 0.00 0.00 0.00 77 1016.3
20260507151617 16 0.0 0.0 0.00 0.00 0.00 79 1016.2
20260507150617 16 0.0 0.0 0.00 0.00 0.00 80 1016.2
20260507145617 15 0.0 0.0 0.00 0.00 0.00 83 1016.2
20260507144616 15 0.0 0.0 0.00 0.00 0.00 85 1016.2
20260507143617 14 0.0 0.0 0.00 0.00 0.00 85 1016.1
20260507142616 13 0.0 0.0 0.00 0.00 0.00 86 1016.0
20260507141637 13 0.0 0.0 0.00 0.00 0.00 87 1015.8
20260507140617 13 0.0 0.0 0.00 0.00 0.00 87 1015.8
20260507135617 12 0.0 0.0 0.00 0.00 0.00 88 1015.6
20260507134617 12 0.0 0.0 0.00 0.00 0.00 88 1015.6
20260507133617 12 0.0 0.0 0.00 0.00 0.00 88 1015.4
20260507132616 12 0.0 0.0 0.00 0.00 0.00 88 1015.4
20260507131617 12 0.0 0.0 0.00 0.00 0.00 88 1015.2
20260507130616 12 0.0 0.0 0.00 0.00 0.00 87 1015.1
20260507125616 12 0.0 0.0 0.00 0.00 0.00 87 1015.1
20260507124616 12 0.0 0.0 0.00 0.00 0.00 87 1015.1
20260507123639 12 0.0 0.0 0.00 0.00 0.00 87 1015.1
20260507122617 12 0.0 0.0 0.00 0.00 0.00 87 1015.1
20260507121617 12 0.0 0.0 0.00 0.00 0.00 86 1015.2
20260507120617 12 0.0 0.0 0.00 0.00 0.00 86 1015.3
20260507115616 12 0.0 0.0 0.00 0.00 0.00 86 1015.3
20260507114617 12 0.0 0.0 0.00 0.00 0.00 86 1015.3
20260507113636 12 0.0 0.0 0.00 0.00 0.00 86 1015.3
20260507112616 12 0.0 0.0 0.00 0.00 0.00 86 1015.2
20260507111616 12 0.0 0.0 0.00 0.00 0.00 86 1015.3
20260507110616 12 0.0 0.0 0.00 0.00 0.00 86 1015.4
20260507105616 12 0.0 0.0 0.00 0.00 0.00 86 1015.4
20260507104616 12 0.0 0.0 0.00 0.00 0.00 86 1015.3
20260507103636 12 0.0 0.0 0.00 0.00 0.00 86 1015.5
20260507102616 12 0.0 0.0 0.00 0.00 0.00 86 1015.6
20260507101636 12 0.0 0.0 0.00 0.00 0.00 85 1015.6
20260507100616 12 0.0 0.0 0.00 0.00 0.00 85 1015.6
20260507095616 12 0.0 0.0 0.00 0.00 0.00 85 1015.7
20260507094637 12 0.0 0.0 0.00 0.00 0.00 84 1015.7
20260507093618 12 0.0 0.0 0.00 0.00 0.00 84 1015.9
20260507092636 12 0.0 0.0 0.00 0.00 0.00 84 1016.1
20260507091616 12 0.0 0.0 0.00 0.00 0.00 84 1016.2
20260507090616 13 0.0 0.0 0.00 0.00 0.00 84 1016.2
20260507085617 13 0.0 0.0 0.00 0.00 0.00 83 1016.3
20260507084616 13 0.0 0.0 0.00 0.00 0.00 83 1016.5
20260507083616 13 0.0 0.0 0.00 0.00 0.00 82 1016.5
20260507082656 13 0.0 0.0 0.00 0.00 0.00 82 1016.5
20260507081636 13 0.0 0.0 0.00 0.00 0.00 82 1016.5
20260507080616 13 0.0 0.0 0.00 0.00 0.00 82 1016.6
20260507075636 13 0.0 0.0 0.00 0.00 0.00 81 1016.6
20260507074616 14 0.0 0.0 0.00 0.00 0.00 80 1016.6
20260507073616 14 0.0 0.0 0.00 0.00 0.00 80 1016.6
20260507072616 14 0.0 0.0 0.00 0.00 0.00 78 1016.7
20260507071616 15 0.0 0.0 0.00 0.00 0.00 78 1016.7
20260507070616 15 0.0 0.0 0.00 0.00 0.00 77 1016.7
20260507065616 15 0.0 0.0 0.00 0.00 0.00 75 1016.7
20260507064637 15 0.0 0.0 0.00 0.00 0.00 74 1016.9
20260507063616 16 0.0 0.0 0.00 0.00 0.00 73 1017.1
20260507062616 16 0.0 0.0 0.00 0.00 0.00 72 1017.0
20260507061617 16 0.0 0.0 0.00 0.00 0.00 72 1016.9
20260507060616 16 0.0 0.0 0.00 0.00 0.00 73 1016.9
20260507055616 16 0.0 0.0 0.00 0.00 0.00 72 1016.9
20260507054618 17 0.0 0.0 0.00 0.00 0.00 71 1017.0
20260507053618 17 0.0 0.0 0.00 0.00 0.00 71 1016.9
20260507052637 17 0.0 0.0 0.00 0.00 0.00 70 1016.8
20260507051616 17 0.0 0.0 0.00 0.00 0.00 69 1016.8
20260507050617 17 0.0 0.0 0.00 0.00 0.00 69 1016.7
20260507045616 17 0.0 0.0 0.00 0.00 0.00 69 1016.7
20260507044616 17 0.0 0.0 0.00 0.00 0.00 68 1016.7
20260507043616 17 0.0 0.0 0.00 0.00 0.00 68 1016.7
20260507042616 18 0.0 0.0 0.00 0.00 0.00 67 1016.6
20260507041616 18 0.0 0.0 0.00 0.00 0.00 66 1016.6
20260507040636 18 0.0 0.0 0.00 0.00 0.00 66 1016.4
20260507035616 18 0.0 0.0 0.00 0.00 0.00 65 1016.3
20260507034616 18 0.0 0.0 0.00 0.00 0.00 64 1016.2
20260507033636 18 0.0 0.0 0.00 0.00 0.00 64 1016.1
20260507032617 19 0.0 0.0 0.00 0.00 0.00 64 1016.0
20260507031616 19 0.0 0.0 0.00 0.00 0.00 62 1015.8
20260507030619 19 0.0 0.0 0.00 0.00 0.00 62 1015.7
20260507025637 20 0.0 0.0 0.00 0.00 0.00 61 1015.6
20260507024616 20 0.0 0.0 0.00 0.00 0.00 60 1015.5
20260507023616 20 0.0 0.0 0.00 0.00 0.00 59 1015.5
20260507022616 21 0.0 0.0 0.00 0.00 0.00 59 1015.2
20260507021616 21 0.0 0.0 0.00 0.00 0.00 58 1015.2
20260507020616 21 0.0 0.0 0.00 0.00 0.00 57 1015.1
20260507015616 21 0.0 0.0 0.00 0.00 0.00 57 1015.0
20260507014616 22 0.0 0.0 0.00 0.00 0.00 56 1014.9